Simultaneous Nadir Overpasses (SNOs) Predictions

Prediction of SNOs between GOES-16 and TERRA Satellite Orbit:

Table of predicted SNOs for the next 14.0 days since TLE Epoch: 7/27/2019
Index Date Time (GOES-16) GOES-16 Lat,Lon TERRA Lat,Lon Distance(km) Time Diff (sec)
1 07/27/2019 15:23:57 0.01, -75.21 -0.32, -73.79 161.40 80
2 07/28/2019 03:48:01 -0.02, -75.21 -0.79, -78.98 428.87 80
3 07/29/2019 15:11:45 0.02, -75.23 -0.91, -70.83 499.79 80
4 07/30/2019 03:35:49 -0.02, -75.23 -0.19, -76.02 90.37 80
5 08/01/2019 03:20:58 -0.02, -75.25 0.47, -73.07 248.40 80
6 08/01/2019 15:44:53 0.02, -75.26 0.66, -78.22 336.56 80
7 08/03/2019 15:30:02 0.02, -75.30 -0.01, -75.28 4.06 80
8 08/05/2019 15:17:50 0.02, -75.33 -0.62, -72.32 343.23 80
9 08/06/2019 03:41:53 -0.02, -75.34 -0.48, -77.51 246.32 80
10 08/08/2019 03:27:01 -0.03, -75.38 0.14, -74.55 94.84 80
11 08/08/2019 15:50:57 0.03, -75.40 0.94, -79.71 489.48 80




NCC Satellite Simultaneous Nadir Overpasses (SNOs) Prediction Service
